Overview Statistics Trail Chart Weather Telemetry Raw packets
 

This is the latest recevied weather packets stored in our database for station/object KB1WCR. If no packets are shown the sender has not sent any weather packets the latest 10 day(s).

<< 91 92 93 94 95 96 97 >>
Time Temp. Humidity Pressure Rain* Wind** Luminosity Snow
1787744120 16.11° C 99% 1017.3 hPa 0 mm - 83 W/m² -
1787743815 16.11° C 99% 1017 hPa 0 mm - 75 W/m² -
1787743509 15.56° C 99% 1017.1 hPa 0 mm - 65 W/m² -
1787743205 15° C 99% 1017.1 hPa 0 mm - 62 W/m² -
1787742901 15.56° C 99% 1017 hPa 0 mm - 56 W/m² -
1787742596 14.44° C 99% 1017.1 hPa 0 mm - 52 W/m² -
1787742291 13.33° C 99% 1016.9 hPa 0 mm - 48 W/m² -
1787741987 12.78° C 99% 1016.9 hPa 0 mm - 32 W/m² -
1787741682 12.22° C 99% 1016.8 hPa 0 mm - 30 W/m² -
1787741378 12.22° C 99% 1016.9 hPa 0 mm - 25 W/m² -
1787741077 11.67° C 99% 1017 hPa 0 mm - 23 W/m² -
1787740772 11.67° C 99% 1016.9 hPa 0 mm - 21 W/m² -
1787740471 11.67° C 99% 1016.8 hPa 0 mm - 19 W/m² -
1787740166 11.67° C 99% 1016.6 hPa 0 mm - 17 W/m² -
1787739862 11.67° C 99% 1016.6 hPa 0 mm - 15 W/m² -
1787739559 11.67° C 99% 1016.4 hPa 0 mm - 12 W/m² -
1787739258 11.11° C 99% 1016.5 hPa 0 mm - 10 W/m² -
1787738954 11.11° C 99% 1016.4 hPa 0 mm - 7 W/m² -
1787738650 11.11° C 99% 1016.4 hPa 0 mm - 5 W/m² -
1787738349 11.11° C 99% 1016.4 hPa 0 mm - 3 W/m² -
1787738044 11.11° C 99% 1016.4 hPa 0 mm - 2 W/m² -
1787737739 11.11° C 99% 1016.3 hPa 0 mm - 1 W/m² -
1787737438 11.11° C 99% 1016.3 hPa 0 mm - 0 W/m² -
1787737134 11.11° C 99% 1016.1 hPa 0 mm - 0 W/m² -
1787736830 11.67° C 99% 1016.1 hPa 0 mm - 0 W/m² -

* Rain latest hour (hover to see other rain measurements)
** Current wind speed in m/s (hover to see current wind gust speed)